Weather History for KSPF - July, 2013

Change the Weather History Date:

Monday, July 22, 2013

  Actual Average (KEFC) Record (KEFC)
Temperature  
Mean Temperature 70 °F -  
Max Temperature 84 °F 87 °F 101 °F (1964)
Min Temperature 57 °F 58 °F 43 °F (1961)
Cooling Degree Days 6    
Growing Degree Days 20 (Base 50)    
Moisture  
Dew Point 53 °F    
Average Humidity 58    
Maximum Humidity 94    
Minimum Humidity 29    
Precipitation  
Precipitation 0.31 in - - ()
Sea Level Pressure  
Sea Level Pressure 29.97 in    
Wind  
Wind Speed 8 mph (SE)    
Max Wind Speed 28 mph    
Max Gust Speed 37 mph    
Visibility 10 miles    
Events Rain , Thunderstorm    
Averages and records for this station are not official NWS values.
T = Trace of Precipitation, MM = Missing Value Source: NWS Daily Summary

Daily Weather History Graph

Daily Weather History Graph

Search for Another Location

Airport or City:

Trip Planner

Search our weather history database for the weather conditions in past years. The results will help you decide how hot, cold, wet, or windy it might be!

Date:

Astronomy

Jul. 22, 2013 Rise Set
Actual Time 6:31 AM CDT 9:31 PM CDT
Civil Twilight 5:57 AM CDT 10:05 PM CDT
Nautical Twilight 5:12 AM CDT 10:49 PM CDT
Astronomical Twilight 4:20 AM CDT 11:41 PM CDT
Moon 9:14 PM CDT (7/22) 6:33 AM CDT (7/22)
Length of Visible Light 16h 08m
Length of Day
14h 59m
Full, 100% of the Moon is Illuminated
Jul 22
Full
Jul 22
Full
Jul 29
Last Quarter
Aug 6
New
Aug 14
First Quarter

Hourly Weather History & Observations

Time (CDT) Temp. Heat Index Dew Point Humidity Pressure Visibility Wind Dir Wind Speed Gust Speed Precip Events Conditions
12:15 AM 62.6 °F - 55.4 °F 77% 29.98 in 10.0 mi Calm Calm - N/A   Unknown
12:35 AM 62.6 °F - 53.6 °F 72% 29.99 in 10.0 mi South 3.5 mph - N/A   Unknown
12:55 AM 62.6 °F - 53.6 °F 72% 29.99 in 10.0 mi SSW 4.6 mph - N/A   Unknown
1:15 AM 62.6 °F - 53.6 °F 72% 29.99 in 10.0 mi SSW 8.1 mph - N/A   Unknown
1:35 AM 62.6 °F - 53.6 °F 72% 30.00 in 10.0 mi SSW 8.1 mph - N/A   Unknown
1:55 AM 60.8 °F - 53.6 °F 77% 29.99 in 10.0 mi SW 6.9 mph - N/A   Unknown
2:15 AM 62.6 °F - 55.4 °F 77% 29.99 in 10.0 mi WSW 4.6 mph - N/A   Unknown
2:35 AM 59.0 °F - 55.4 °F 88% 29.99 in 10.0 mi SSW 5.8 mph - N/A   Unknown
2:55 AM 60.8 °F - 55.4 °F 82% 29.99 in 10.0 mi Calm Calm - N/A   Unknown
3:15 AM 59.0 °F - 55.4 °F 88% 29.99 in 10.0 mi SW 4.6 mph - N/A   Unknown
3:35 AM 59.0 °F - 55.4 °F 88% 29.99 in 10.0 mi SSW 6.9 mph - N/A   Unknown
3:55 AM 59.0 °F - 55.4 °F 88% 29.99 in 10.0 mi Calm Calm - N/A   Unknown
4:15 AM 59.0 °F - 55.4 °F 88% 29.98 in 10.0 mi Calm Calm - N/A   Unknown
4:35 AM 57.2 °F - 55.4 °F 94% 29.98 in 10.0 mi Calm Calm - N/A   Unknown
4:55 AM 57.2 °F - 55.4 °F 94% 29.98 in 10.0 mi Calm Calm - N/A   Unknown
5:15 AM 57.2 °F - 55.4 °F 94% 29.98 in 10.0 mi Calm Calm - N/A   Unknown
5:35 AM 59.0 °F - 55.4 °F 88% 29.98 in 10.0 mi Calm Calm - N/A   Unknown
5:55 AM 57.2 °F - 55.4 °F 94% 29.99 in 10.0 mi Calm Calm - N/A   Unknown
6:15 AM 57.2 °F - 55.4 °F 94% 29.99 in 10.0 mi Calm Calm - N/A   Unknown
6:35 AM 57.2 °F - 53.6 °F 88% 29.99 in 10.0 mi SW 8.1 mph - N/A   Unknown
6:55 AM 59.0 °F - 55.4 °F 88% 29.99 in 10.0 mi Calm Calm - N/A   Unknown
7:15 AM 59.0 °F - 55.4 °F 88% 30.00 in 10.0 mi Calm Calm - N/A   Unknown
7:55 AM 66.2 °F - 53.6 °F 64% 30.00 in 10.0 mi Calm Calm - N/A   Unknown
8:15 AM 68.0 °F - 53.6 °F 60% 30.00 in 10.0 mi South 3.5 mph - N/A   Unknown
9:15 AM 75.2 °F - 57.2 °F 53% 30.00 in 10.0 mi SSE 3.5 mph - N/A   Unknown
9:35 AM 77.0 °F - 51.8 °F 41% 30.00 in 10.0 mi SSE 3.5 mph - N/A   Unknown
9:55 AM 77.0 °F - 48.2 °F 36% 30.00 in 10.0 mi SE 3.5 mph - N/A   Unknown
10:15 AM 77.0 °F - 44.6 °F 32% 30.00 in 10.0 mi East 5.8 mph - N/A   Unknown
10:35 AM 78.8 °F - 44.6 °F 30% 30.00 in 10.0 mi ESE 9.2 mph - N/A   Unknown
10:55 AM 77.0 °F - 53.6 °F 44% 30.00 in 10.0 mi East 10.4 mph - N/A   Unknown
11:15 AM 78.8 °F - 50.0 °F 36% 30.00 in 10.0 mi East 11.5 mph - N/A   Unknown
11:35 AM 78.8 °F - 50.0 °F 36% 30.00 in 10.0 mi East 10.4 mph - N/A   Unknown
11:55 AM 80.6 °F - 48.2 °F 32% 29.99 in 10.0 mi East 11.5 mph - N/A   Unknown
12:15 PM 80.6 °F - 50.0 °F 34% 29.99 in 10.0 mi East 12.7 mph - N/A   Unknown
12:35 PM 80.6 °F - 51.8 °F 37% 29.98 in 10.0 mi East 13.8 mph 18.4 mph N/A   Unknown
12:55 PM 80.6 °F 80.3 °F 53.6 °F 39% 29.98 in 10.0 mi ENE 15.0 mph - N/A   Unknown
1:15 PM 80.6 °F 80.5 °F 55.4 °F 42% 29.98 in 10.0 mi East 17.3 mph 21.9 mph N/A   Unknown
1:35 PM 82.4 °F - 50.0 °F 32% 29.98 in 10.0 mi East 16.1 mph 20.7 mph N/A   Unknown
1:55 PM 82.4 °F - 48.2 °F 30% 29.97 in 10.0 mi East 18.4 mph - N/A   Unknown
2:15 PM 84.2 °F - 50.0 °F 30% 29.97 in 10.0 mi East 19.6 mph 23.0 mph N/A   Unknown
2:35 PM 84.2 °F - 48.2 °F 29% 29.97 in 10.0 mi ESE 19.6 mph - N/A   Unknown
2:55 PM 84.2 °F - 51.8 °F 33% 29.96 in 10.0 mi East 19.6 mph 24.2 mph N/A   Unknown
3:15 PM 84.2 °F - 51.8 °F 33% 29.96 in 10.0 mi ESE 18.4 mph 21.9 mph N/A   Unknown
3:35 PM 84.2 °F - 50.0 °F 30% 29.95 in 10.0 mi East 21.9 mph 25.3 mph N/A   Unknown
3:55 PM 84.2 °F - 50.0 °F 30% 29.95 in 10.0 mi East 19.6 mph 26.5 mph N/A   Unknown
4:15 PM 84.2 °F - 50.0 °F 30% 29.94 in 10.0 mi East 20.7 mph 27.6 mph N/A   Unknown
4:35 PM 84.2 °F - 51.8 °F 33% 29.93 in 10.0 mi ESE 19.6 mph 26.5 mph N/A   Unknown
4:55 PM 82.4 °F - 51.8 °F 35% 29.92 in 10.0 mi East 19.6 mph - N/A   Unknown
5:15 PM 80.6 °F - 51.8 °F 37% 29.92 in 10.0 mi East 16.1 mph 24.2 mph N/A   Unknown
5:35 PM 77.0 °F - 53.6 °F 44% 29.91 in 10.0 mi East 13.8 mph - N/A   Unknown
5:55 PM 77.0 °F - 53.6 °F 44% 29.94 in 10.0 mi ESE 10.4 mph - N/A   Unknown
6:15 PM 75.2 °F - 55.4 °F 50% 29.99 in 7.0 mi WNW 27.6 mph 34.5 mph 0.02 in Rain , Thunderstorm Light Thunderstorms and Rain
6:35 PM 64.4 °F - 55.4 °F 73% 29.98 in 3.0 mi SE 15.0 mph - 0.28 in Rain , Thunderstorm Rain
6:55 PM 68.0 °F - 50.0 °F 52% 29.97 in 10.0 mi South 13.8 mph 27.6 mph 0.28 in Thunderstorm Thunderstorm
7:15 PM 68.0 °F - 55.4 °F 64% 29.97 in 10.0 mi ENE 12.7 mph 18.4 mph N/A Thunderstorm Unknown
7:35 PM 66.2 °F - 55.4 °F 68% 30.00 in 10.0 mi ENE 8.1 mph - N/A Thunderstorm Thunderstorm
7:55 PM 66.2 °F - 53.6 °F 64% 29.93 in 8.0 mi SSE 21.9 mph 27.6 mph 0.01 in Rain , Thunderstorm Light Rain
8:15 PM 68.0 °F - 51.8 °F 56% 29.90 in 10.0 mi SSE 20.7 mph 27.6 mph N/A   Unknown
8:35 PM 68.0 °F - 53.6 °F 60% 29.95 in 9.0 mi SE 15.0 mph - N/A Rain , Thunderstorm Light Thunderstorms and Rain
8:55 PM 66.2 °F - 53.6 °F 64% 29.94 in 7.0 mi South 9.2 mph 21.9 mph 0.02 in Thunderstorm Thunderstorm
9:15 PM 64.4 °F - 55.4 °F 73% 29.93 in 10.0 mi South 5.8 mph - N/A   Unknown
9:35 PM 68.0 °F - 51.8 °F 56% 29.90 in 10.0 mi South 24.2 mph 33.4 mph N/A   Unknown
9:55 PM 68.0 °F - 51.8 °F 56% 29.89 in 10.0 mi South 27.6 mph 36.8 mph N/A   Unknown
10:15 PM 69.8 °F - 50.0 °F 49% 29.91 in 10.0 mi SSW 18.4 mph 27.6 mph N/A   Unknown
10:35 PM 69.8 °F - 50.0 °F 49% 29.93 in 10.0 mi SSW 12.7 mph 23.0 mph N/A   Unknown
10:55 PM 69.8 °F - 50.0 °F 49% 29.93 in 10.0 mi South 19.6 mph 24.2 mph N/A   Unknown
11:15 PM 71.6 °F - 50.0 °F 46% 29.93 in 10.0 mi South 25.3 mph 32.2 mph N/A   Unknown
11:35 PM 71.6 °F - 50.0 °F 46% 29.95 in 10.0 mi South 20.7 mph 33.4 mph N/A   Unknown
11:55 PM 73.4 °F - 51.8 °F 47% 29.95 in 10.0 mi South 20.7 mph 33.4 mph N/A   Unknown